Location: Piotrkow Trybunalski
(51.4000°N, 19.6830°E)
Time: 05:19:37
(UTC+02:00)

A-11 Canister half - Pass Details

Date: 03 February 2023
Orbit: 1526 x 1682 km, 47.3° (Epoch: 25 March)

Event Time Altitude Azimuth Distance (km) Brightness Sun altitude
Rises 03:51:05 0° 187° (S) 4,670 - -32.1°
Exits shadow 03:51:57 - 185° (S) 4,446 11.3 -32.0°
Reaches altitude 10° 03:55:13 10° 172° (S) 3,685 10.9 -31.5°
Maximum altitude 04:01:13 19° 130° (SE) 3,013 10.9 -30.6°
Drops below altitude 10° 04:07:13 10° 89° (E) 3,712 11.9 -29.6°
Sets 04:11:23 0° 74° (ENE) 4,716 12.8 -29.0°
